Temp
-2 -1 -1 -1 -1 -1 -1 -1 -1 -1 -1 -0 0 0 1 1 1 2 3 3 2 2 3 2 3 3 3 2 2 2 2 3 3 3 3 4 4 4 4 4 5 5 6 6 5
-1 -1 -1 -1 -1 -1 -1 -1 -2 -0 -1 -1 -0 0 0 1 1 2 3 2 2 2 3 3 3 2 2 2 2 2 2 2 3 3 4 4 4 4 3 4 4 5 5 5 4
-1 -1 -1 -1 -1 -1 -1 -1 -2 -1 -1 -1 -1 -0 0 1 1 1 2 1 1 2 2 2 2 2 2 2 2 1 1 2 2 3 4 4 4 4 4 4 4 5 5 5 4
-1 -1 -1 -1 -1 -1 -1 -1 -1 -2 -1 -0 -1 -1 0 0 -0 1 1 1 2 2 2 2 2 2 1 1 2 1 1 1 2 3 3 4 4 4 4 4 4 4 5 4 3
-1 -1 -1 -1 -1 -1 -1 -1 -1 -1 -1 -0 -1 -0 -0 0 0 1 1 1 1 2 2 2 2 1 1 0 1 0 1 1 2 2 3 3 4 4 4 4 4 4 4 3 3
-0 -1 -1 -1 -1 -1 -1 -1 -1 -2 -2 -1 -1 -1 -0 0 -0 0 1 1 2 2 2 1 1 1 -0 0 -0 0 0 1 1 2 2 3 3 3 3 4 3 3 3 3 3
-0 -1 -1 -1 -1 -1 -0 -1 -1 -1 -2 -1 -1 -1 -0 -1 -1 -0 0 1 1 1 1 1 1 0 1 0 0 0 -0 0 1 2 2 1 1 2 3 3 3 3 3 2 1
-0 -0 -0 -1 -1 -1 -1 -1 -1 -1 -1 -1 -1 -1 -1 -1 -0 -0 0 1 1 0 0 0 0 -0 -0 -0 -0 -1 -0 -0 0 1 0 0 -1 0 1 3 3 2 2 1 1
-0 -0 -0 -0 -1 -1 -1 -1 -1 -1 -1 -1 -1 -1 -1 -1 -1 -0 -0 0 1 0 -0 -1 -1 -1 -1 -1 -1 -1 -0 -1 -0 0 1 -1 0 0 1 1 2 2 2 1 1
-0 -0 -0 -0 -0 -1 -1 -1 -1 -1 -1 -1 -1 -2 -1 -1 -1 -1 -0 -0 0 -0 -1 -2 -2 -1 -1 -1 0 -0 -0 -1 -0 -0 0 -0 1 1 1 1 2 2 1 2 1
-0 -0 -0 -0 -0 -0 -1 -1 -1 -1 -1 -1 -1 -1 -1 -1 -1 -1 -1 -0 -1 -1 -1 -1 -2 -2 0 -1 0 0 0 -2 -1 -1 -1 -1 -0 -0 1 1 1 2 2 2 1
-0 0 -0 -0 0 -0 -1 -2 -1 -1 -1 -1 -1 -1 -1 -1 -1 -1 -1 -1 -1 -1 -1 -2 -2 -1 -1 -1 -1 -1 -1 -2 -1 -1 -1 -1 -1 -1 0 1 1 2 2 2 2
-0 0 0 0 0 -0 -0 -1 -2 -1 -2 -1 -1 -1 -1 -1 -1 -1 -1 -1 -1 -1 -1 -2 -1 -2 -1 -1 -1 -1 -1 -0 -1 -1 -1 -1 -2 -0 0 1 1 1 1 1 2
-0 0 0 0 0 -0 -0 -1 -2 -2 -2 -1 -1 -1 -1 -2 -2 -1 -2 -2 -2 -1 -1 -2 -2 -1 -1 -2 -2 -1 -1 -1 -0 -0 -1 -2 2 0 0 1 1 1 1 1 2
-1 -0 0 0 0 -0 -1 -2 -2 -3 -1 -2 -2 -1 -2 -2 -2 -1 -2 -3 -2 -1 -1 -2 -1 -1 -2 -0 -1 -1 -1 -1 -1 -1 -1 -2 -2 2 1 1 1 1 1 1 1
-0 -1 -0 0 -0 -1 -1 -2 -3 -3 -2 -2 -3 -2 -2 -2 -2 -2 -2 -3 -3 -3 -2 -2 -1 -2 -1 -0 -1 -1 -1 -1 -2 -3 -2 -0 -1 2 1 1 2 2 2 2 1
-1 -1 -1 -1 -1 -1 -2 -3 -4 -3 -3 -3 -3 -3 -3 -3 -4 -3 -3 -4 -4 -3 -3 -3 -2 -2 -2 -2 -2 -2 -2 -3 -3 -3 -0 -0 -3 0 1 1 1 1 2 2 1
-1 -1 -1 -1 -1 -2 -3 -4 -4 -3 -3 -3 -3 -3 -4 -4 -4 -4 -3 -4 -4 -3 -3 -3 -3 -2 -2 -2 -1 -3 -1 -0 -0 -0 1 -3 -2 0 0 0 1 1 1 2 1
-1 -1 -1 -1 -2 -3 -4 -5 -4 -4 -4 -4 -4 -3 -4 -4 -4 -4 -4 -4 -4 -4 -3 -3 -2 -1 -2 -1 -2 -3 -2 -1 -0 -1 1 -0 -2 -1 0 0 1 2 1 2 2
-1 -2 -2 -2 -2 -3 -4 -4 -4 -4 -4 -4 -5 -4 -4 -4 -4 -4 -4 -4 -4 -4 -4 -4 -3 -2 -2 -2 -2 -2 -1 -3 -3 -2 -0 1 -1 1 1 1 1 2 2 2 1
-2 -2 -2 -3 -3 -4 -5 -5 -5 -5 -5 -5 -5 -5 -5 -5 -5 -4 -4 -4 -3 -4 -4 -4 -4 -3 -3 -3 -3 -3 -2 -2 -2 -1 1 2 2 1 2 1 1 1 2 1 1
-2 -3 -2 -3 -4 -5 -4 -5 -5 -6 -6 -6 -6 -5 -5 -6 -5 -5 -5 -4 -4 -4 -4 -4 -4 -4 -4 -3 -3 -3 -2 -2 -1 -0 -1 1 1 0 0 1 1 0 1 -0 -2
-3 -3 -3 -4 -4 -5 -5 -5 -6 -6 -6 -7 -7 -6 -6 -6 -6 -5 -5 -5 -5 -4 -4 -4 -4 -5 -5 -4 -4 -4 -3 -2 -2 -1 -1 -1 -0 0 0 1 1 1 -0 -1 -2
-4 -4 -4 -4 -5 -5 -5 -5 -6 -6 -6 -7 -7 -7 -7 -6 -6 -6 -6 -6 -5 -6 -5 -5 -5 -4 -1 -1 -2 -4 -4 -3 -3 -4 -2 -1 -1 -0 -0 -0 1 1 0 -1 -3
-4 -5 -5 -5 -6 -6 -6 -6 -6 -7 -6 -7 -7 -8 -8 -8 -8 -7 -6 -6 -6 -6 -6 -6 -6 -5 -4 -4 -4 -3 -2 -3 -4 -4 -3 -2 -2 -2 -1 -0 -2 -1 -1 -1 -2
-5 -5 -5 -6 -6 -6 -7 -7 -7 -7 -7 -7 -7 -8 -8 -9 -9 -8 -8 -7 -7 -7 -6 -6 -6 -5 -5 -5 -5 -4 -4 -4 -3 -3 -4 -3 -3 -2 -2 -3 -2 -2 -3 -3 -4
-6 -6 -6 -6 -7 -7 -7 -7 -7 -8 -8 -8 -8 -8 -8 -8 -9 -9 -9 -8 -8 -8 -8 -7 -7 -6 -6 -6 -6 -7 -4 -4 -3 -3 -3 -4 -3 -3 -3 -3 -3 -3 -4 -5 -6
Height
3062 3061 3059 3058 3057 3056 3056 3054 3056 3057 3056 3057 3059 3060 3065 3068 3071 3075 3080 3086 3086 3090 3094 3096 3101 3102 3105 3108 3110 3117 3120 3116 3119 3121 3122 3125 3127 3129 3133 3136 3137 3140 3145 3147 3149
3060 3058 3055 3055 3054 3053 3053 3053 3054 3053 3055 3055 3055 3057 3061 3065 3068 3072 3079 3081 3084 3088 3090 3094 3096 3100 3104 3105 3108 3113 3113 3112 3115 3118 3120 3123 3125 3127 3131 3134 3136 3138 3142 3145 3147
3058 3055 3053 3051 3051 3050 3051 3051 3051 3051 3051 3055 3053 3054 3057 3061 3066 3071 3073 3075 3079 3085 3087 3091 3094 3099 3104 3103 3104 3108 3110 3110 3112 3115 3117 3121 3123 3126 3129 3132 3134 3136 3140 3143 3145
3056 3054 3051 3048 3048 3048 3049 3049 3050 3050 3049 3053 3052 3053 3055 3059 3066 3065 3069 3072 3076 3081 3084 3088 3090 3094 3097 3099 3102 3106 3104 3109 3110 3113 3115 3117 3119 3122 3124 3128 3131 3134 3138 3140 3142
3055 3052 3049 3046 3046 3046 3046 3047 3048 3048 3050 3049 3050 3051 3053 3057 3061 3062 3065 3069 3072 3077 3081 3085 3088 3091 3094 3096 3101 3102 3105 3104 3107 3112 3111 3113 3116 3119 3122 3124 3128 3131 3135 3138 3140
3053 3051 3048 3045 3045 3045 3045 3045 3046 3046 3048 3048 3048 3049 3052 3056 3058 3061 3062 3066 3070 3074 3078 3082 3087 3091 3092 3094 3100 3099 3101 3103 3106 3108 3108 3110 3113 3115 3117 3120 3124 3127 3131 3134 3137
3052 3049 3047 3045 3043 3043 3043 3044 3045 3046 3045 3046 3046 3046 3049 3053 3054 3057 3061 3063 3067 3072 3076 3081 3086 3088 3090 3092 3095 3097 3099 3100 3102 3102 3105 3110 3111 3110 3112 3117 3122 3124 3127 3130 3135
3050 3048 3046 3044 3042 3041 3042 3042 3043 3045 3045 3045 3044 3045 3047 3050 3053 3055 3059 3061 3064 3069 3074 3080 3083 3084 3087 3089 3092 3095 3098 3098 3099 3100 3104 3106 3107 3111 3112 3113 3117 3120 3124 3128 3132
3049 3047 3045 3043 3041 3039 3039 3040 3041 3043 3044 3043 3044 3045 3047 3048 3050 3053 3056 3060 3062 3066 3071 3076 3079 3080 3084 3087 3091 3091 3093 3096 3098 3098 3101 3104 3104 3106 3110 3113 3114 3117 3120 3125 3127
3048 3045 3044 3041 3040 3038 3038 3038 3039 3041 3043 3043 3044 3047 3045 3046 3048 3051 3054 3058 3060 3064 3069 3073 3075 3077 3080 3083 3083 3084 3090 3091 3092 3095 3097 3098 3100 3103 3107 3109 3112 3115 3117 3120 3123
3047 3043 3041 3040 3039 3038 3038 3038 3041 3041 3041 3043 3043 3043 3042 3044 3046 3049 3053 3055 3058 3062 3064 3067 3071 3069 3071 3077 3083 3086 3089 3089 3088 3091 3093 3094 3097 3100 3102 3104 3107 3109 3112 3116 3119
3046 3042 3040 3039 3036 3035 3035 3035 3037 3038 3039 3040 3040 3041 3042 3043 3045 3046 3050 3054 3055 3058 3061 3065 3063 3068 3075 3076 3079 3082 3084 3085 3087 3089 3092 3093 3094 3096 3098 3100 3103 3105 3108 3112 3115
3044 3041 3038 3036 3034 3033 3032 3033 3034 3035 3037 3037 3039 3040 3040 3042 3043 3044 3047 3050 3053 3054 3055 3058 3061 3065 3068 3072 3076 3078 3079 3079 3083 3085 3087 3089 3090 3091 3094 3095 3097 3101 3104 3107 3110
3044 3041 3038 3036 3035 3033 3033 3033 3033 3033 3036 3036 3035 3037 3038 3040 3041 3042 3045 3049 3049 3052 3055 3057 3059 3060 3064 3067 3072 3075 3076 3079 3081 3083 3086 3086 3083 3084 3088 3090 3092 3096 3099 3103 3105
3042 3040 3038 3034 3032 3032 3033 3031 3032 3034 3032 3034 3031 3031 3033 3037 3039 3039 3041 3044 3046 3048 3051 3051 3053 3057 3059 3061 3067 3073 3074 3077 3079 3082 3081 3081 3085 3078 3079 3081 3087 3091 3094 3096 3099
3042 3039 3037 3034 3032 3031 3029 3030 3032 3035 3031 3030 3030 3028 3030 3033 3035 3035 3037 3040 3043 3045 3046 3050 3050 3053 3056 3061 3064 3068 3071 3074 3076 3079 3075 3075 3077 3070 3070 3076 3080 3082 3085 3088 3091
3041 3038 3035 3033 3030 3027 3027 3028 3031 3029 3030 3030 3028 3029 3029 3030 3031 3033 3033 3034 3038 3042 3041 3043 3045 3047 3050 3054 3057 3062 3066 3072 3075 3072 3064 3068 3068 3063 3062 3066 3070 3074 3077 3079 3081
3041 3037 3035 3032 3029 3028 3029 3032 3033 3029 3027 3027 3026 3027 3027 3027 3028 3028 3030 3030 3033 3035 3036 3037 3040 3038 3040 3042 3043 3049 3055 3055 3056 3056 3057 3062 3054 3052 3055 3060 3062 3064 3067 3070 3072
3039 3036 3034 3031 3029 3029 3029 3028 3025 3027 3026 3025 3026 3024 3023 3024 3025 3024 3024 3025 3026 3029 3032 3031 3031 3031 3034 3038 3042 3045 3044 3052 3053 3051 3049 3047 3046 3049 3047 3050 3053 3056 3058 3060 3062
3037 3034 3032 3030 3028 3028 3029 3026 3026 3024 3023 3024 3023 3023 3021 3021 3020 3019 3019 3018 3018 3019 3023 3023 3026 3025 3029 3033 3036 3035 3043 3048 3048 3045 3042 3037 3040 3036 3038 3042 3045 3047 3050 3052 3055
3033 3030 3029 3026 3025 3026 3024 3023 3020 3020 3021 3021 3020 3018 3018 3017 3015 3013 3011 3012 3012 3012 3014 3015 3019 3019 3022 3022 3026 3030 3032 3036 3039 3036 3030 3030 3028 3030 3033 3036 3038 3041 3043 3046 3049
3029 3027 3024 3022 3022 3019 3017 3016 3015 3016 3017 3016 3015 3014 3013 3013 3011 3010 3008 3007 3005 3007 3007 3008 3009 3011 3012 3014 3018 3020 3023 3026 3025 3028 3027 3029 3024 3027 3028 3030 3034 3036 3038 3042 3045
3026 3022 3020 3018 3016 3015 3014 3012 3012 3011 3011 3010 3010 3010 3009 3009 3008 3004 3003 3002 3003 3001 3002 3002 3001 3004 3005 3009 3008 3008 3014 3016 3021 3024 3018 3022 3017 3025 3027 3028 3029 3031 3034 3037 3040
3025 3021 3016 3014 3012 3012 3010 3010 3009 3007 3006 3006 3005 3005 3005 3003 3003 3000 2999 2998 2998 2997 2998 2996 2994 2994 2992 2993 2996 3000 3003 3008 3013 3013 3011 3007 3016 3019 3022 3024 3026 3028 3030 3033 3037
3021 3020 3016 3013 3010 3008 3008 3007 3006 3004 3003 3001 2998 2999 2999 2998 2997 2995 2994 2993 2992 2993 2992 2993 2991 2989 2988 2989 2990 2993 2994 2998 3000 3003 3005 3007 3009 3014 3018 3020 3023 3025 3026 3028 3031
3019 3017 3015 3011 3009 3007 3004 3002 3001 2999 2998 2997 2996 2994 2992 2992 2992 2990 2990 2989 2987 2986 2986 2985 2983 2983 2983 2983 2983 2985 2987 2989 2992 2995 2996 3000 3002 3006 3009 3011 3015 3018 3020 3023 3025
3016 3014 3011 3009 3006 3004 3002 3000 2996 2994 2993 2991 2989 2987 2987 2986 2984 2982 2982 2982 2981 2981 2981 2981 2979 2979 2977 2977 2978 2979 2975 2980 2984 2986 2989 2989 2995 2999 3002 3004 3007 3010 3012 3016 3020
Wind_Speed
17 16 16 15 14 13 14 16 18 13 8 11 13 18 23 26 27 28 27 24 26 24 23 22 21 20 21 22 23 25 20 19 22 25 24 24 24 27 32 31 29 30 30 29 31
16 17 16 15 14 12 13 14 12 16 6 10 11 16 20 23 24 25 23 24 26 24 23 22 21 21 21 21 22 26 26 22 24 23 24 27 27 27 33 30 29 30 28 28 32
16 16 15 13 13 11 11 11 11 12 7 11 11 14 18 20 19 20 25 26 26 23 21 22 20 19 21 20 22 26 24 23 23 19 24 25 28 28 33 31 30 30 29 28 29
17 16 15 12 12 11 8 10 7 10 6 13 9 14 17 18 14 21 24 24 25 26 27 24 25 23 22 22 24 24 26 25 20 21 21 27 29 29 33 34 32 31 29 28 26
18 15 15 11 8 9 8 9 10 4 3 5 7 13 15 17 19 13 22 23 26 27 27 25 25 25 23 20 23 25 27 21 19 21 24 26 29 32 33 35 34 33 31 30 28
18 16 15 10 7 6 9 9 6 7 10 3 7 11 15 17 21 14 16 23 24 28 28 26 24 24 20 20 19 23 20 23 20 20 24 27 31 35 35 36 36 35 33 31 28
16 16 16 11 6 6 8 10 12 9 5 5 8 8 14 13 20 23 15 18 26 27 26 26 22 22 21 21 23 18 19 20 21 22 20 25 31 36 36 36 36 35 33 31 31
16 14 16 12 8 7 8 10 11 12 8 8 6 7 12 15 16 18 21 15 23 25 24 23 23 22 19 20 22 19 19 18 21 21 23 21 26 33 34 37 38 36 35 35 36
17 15 14 13 10 7 8 9 10 11 8 9 7 5 9 14 17 16 19 15 22 26 26 24 23 24 21 22 22 24 15 16 21 22 22 25 23 31 33 37 39 38 35 34 33
18 16 14 13 11 8 7 8 9 10 11 6 7 6 8 14 18 18 20 17 21 27 27 27 27 26 24 24 26 25 22 21 25 27 26 27 26 27 35 36 38 38 36 34 34
18 17 15 12 14 8 6 7 7 9 11 7 7 2 3 13 17 20 19 19 22 28 32 31 26 31 34 28 16 20 21 18 27 26 28 29 32 23 31 35 37 38 36 35 34
16 18 16 13 12 9 6 7 7 8 10 12 10 5 8 12 17 21 21 24 25 31 32 31 32 28 22 26 25 17 21 20 24 23 25 25 27 31 22 31 33 34 34 32 31
15 18 15 15 9 7 8 8 8 8 10 11 13 11 11 11 15 21 26 25 26 30 35 28 27 30 33 31 26 20 24 27 23 27 25 23 27 31 33 28 30 31 30 29 29
15 16 15 15 10 8 7 6 7 7 5 7 15 17 17 14 16 17 23 27 27 30 29 28 25 21 33 30 29 24 24 23 28 26 18 26 14 28 33 34 35 31 29 29 30
15 15 15 13 12 8 5 5 4 1 3 3 10 12 17 18 9 18 20 28 27 27 32 27 28 29 26 39 35 25 20 21 25 22 19 19 14 21 28 36 36 33 33 34 33
17 15 13 13 10 7 5 1 1 3 3 3 4 7 15 20 19 9 22 26 24 20 26 26 23 21 31 26 33 29 21 21 17 12 12 26 22 28 36 34 34 38 38 39 40
17 15 13 11 9 7 4 3 1 4 3 2 4 6 11 19 21 13 22 29 19 16 20 25 26 24 24 28 30 34 24 6 7 8 10 19 18 33 19 31 30 32 33 32 37
17 16 13 10 9 6 3 3 4 4 5 5 4 6 9 15 17 23 21 30 25 21 14 20 16 30 33 30 37 40 37 14 13 9 14 15 12 18 30 30 21 21 31 34 36
18 15 14 11 7 5 5 5 4 4 5 4 9 12 14 15 12 20 25 32 31 29 16 15 20 18 28 33 29 28 39 35 15 5 10 17 21 30 28 26 30 30 33 30 34
20 17 14 11 7 6 10 11 7 6 6 8 5 8 9 9 18 19 21 16 33 38 35 18 7 20 26 28 30 27 33 26 22 7 12 8 15 20 15 36 31 29 29 29 30
20 19 13 13 7 8 14 12 16 16 15 10 10 13 16 18 16 19 14 18 19 20 33 41 30 13 25 35 30 27 29 29 24 27 12 15 14 15 21 27 24 35 34 33 30
19 17 17 10 9 9 12 16 13 14 14 16 17 20 21 17 15 11 14 20 14 21 24 34 21 23 30 29 35 34 33 38 22 23 36 30 21 3 12 19 26 28 30 31 32
18 17 12 12 8 10 11 13 16 17 14 10 10 11 12 17 12 11 15 14 20 26 20 26 18 7 13 28 38 38 38 34 39 23 28 17 12 30 20 7 15 22 25 26 28
18 13 14 14 7 10 15 14 11 12 13 12 15 16 17 18 19 14 16 13 13 23 19 14 22 23 15 14 23 42 45 45 38 29 28 36 27 24 20 22 25 17 16 21 24
15 11 12 13 15 14 13 13 13 15 16 15 16 12 16 16 17 23 21 21 23 23 22 18 22 21 31 27 22 20 39 45 47 41 30 33 33 32 27 19 19 19 18 20 23
15 13 12 14 10 11 12 14 12 10 15 18 18 18 18 21 19 23 22 26 25 24 17 25 23 24 26 28 28 30 29 33 42 48 48 40 32 25 30 32 30 26 25 29 31
15 14 14 14 13 14 14 17 17 18 17 15 18 21 21 24 25 26 24 23 25 24 21 19 17 19 15 20 22 19 38 36 34 41 43 42 40 39 33 30 32 34 32 30 32
Wind_Direction
323 315 303 308 293 278 262 260 238 244 279 259 243 228 225 224 221 218 212 207 216 214 212 209 209 208 210 209 206 213 210 212 218 211 208 203 201 206 198 197 196 190 190 193 191
332 324 312 303 295 285 268 264 253 277 300 277 239 227 223 224 222 219 212 214 218 212 211 211 209 210 211 210 208 208 212 214 216 214 213 205 201 205 196 194 194 194 197 198 195
332 330 319 297 294 283 275 269 258 274 286 306 252 224 224 222 222 212 213 213 215 210 210 208 207 212 213 213 212 210 213 214 212 205 210 213 208 206 205 203 203 200 200 200 196
337 333 328 302 293 280 275 261 226 257 242 281 260 231 221 215 211 217 214 212 208 207 208 207 203 205 210 212 215 211 212 214 212 205 207 208 211 208 207 208 203 204 204 202 206
340 334 334 315 291 284 269 255 236 203 243 288 258 230 219 212 206 212 213 208 206 206 209 211 209 206 212 204 214 208 216 212 209 209 210 211 212 212 210 206 204 205 205 202 204
345 341 337 329 296 287 264 249 223 238 225 285 271 221 211 209 207 200 202 204 206 209 208 207 213 210 209 208 199 215 215 210 208 215 213 212 212 209 209 208 205 204 205 204 204
348 342 342 331 308 270 261 253 232 234 273 257 291 237 213 191 207 211 208 205 204 210 210 205 207 208 215 212 208 211 204 206 213 216 220 215 212 211 209 207 207 206 206 204 204
352 345 346 338 315 279 261 251 245 235 249 262 297 253 215 205 205 210 215 217 203 200 202 205 202 208 210 204 200 199 201 203 206 208 210 212 219 214 212 208 208 209 208 207 210
354 350 346 344 324 301 260 250 239 225 242 250 256 256 212 198 203 206 206 208 197 190 194 193 196 199 202 202 193 192 200 198 210 212 217 207 222 217 215 214 211 211 212 213 215
353 349 345 339 333 310 271 262 247 230 228 233 271 260 210 200 200 202 204 200 196 187 188 188 194 198 201 191 198 197 197 202 212 210 215 218 220 223 218 218 217 216 217 219 222
354 351 342 341 335 322 278 258 245 232 222 243 265 274 219 203 195 196 201 196 191 194 190 192 194 201 210 208 215 213 204 193 208 210 212 214 216 221 223 221 221 222 222 224 226
346 352 349 344 329 321 278 230 235 235 219 225 239 240 227 205 202 197 199 201 197 199 201 200 209 213 210 209 214 216 195 204 212 211 213 221 223 222 224 224 225 226 227 229 233
346 351 352 347 334 306 280 246 248 238 239 231 229 227 231 217 215 209 203 204 211 205 207 207 220 214 212 211 209 214 213 217 217 209 216 219 229 226 226 227 227 229 231 233 238
347 349 356 353 353 320 297 269 240 239 253 250 242 239 232 224 224 217 211 209 209 216 215 220 216 224 216 216 209 215 213 224 226 214 214 216 231 231 230 232 233 233 238 241 244
356 347 350 352 349 337 307 260 274 320 256 261 230 225 215 211 215 218 214 215 220 218 212 218 224 217 219 224 218 221 220 221 227 223 231 223 228 233 231 234 238 240 242 245 247
5 355 352 352 351 337 301 235 113 157 246 248 241 219 214 211 219 219 208 210 219 225 230 223 231 226 234 226 224 214 209 209 214 211 237 230 219 241 238 240 241 242 245 248 249
7 1 358 352 350 329 291 192 158 214 245 264 251 245 224 214 221 233 212 203 205 202 216 222 223 224 211 214 208 213 196 166 200 209 235 221 222 232 238 237 237 240 243 246 246
360 0 360 349 339 320 266 205 236 248 255 250 288 273 224 225 223 227 222 207 209 210 207 204 214 211 213 210 206 203 201 194 214 211 214 221 227 232 238 229 215 226 236 239 240
347 350 350 348 332 289 240 227 227 229 259 284 280 274 267 239 226 221 230 234 244 211 216 211 225 230 217 220 210 201 211 213 242 267 239 221 239 247 243 229 229 233 237 240 237
336 338 338 339 322 275 242 246 244 230 250 272 271 265 259 248 240 236 230 242 246 239 220 219 231 221 213 212 214 220 214 206 216 207 227 208 237 233 240 236 224 226 229 232 232
329 327 331 322 310 269 243 258 260 257 265 276 269 261 279 293 275 232 229 247 252 244 234 222 219 212 205 208 208 202 204 211 222 226 236 248 241 246 241 240 236 235 233 230 226
326 321 321 310 297 268 263 268 275 273 268 267 270 267 278 287 292 290 285 249 233 240 230 233 228 220 207 210 210 209 215 209 215 216 231 248 255 259 236 236 232 232 236 231 225
326 320 315 306 280 274 274 274 276 282 282 267 259 269 273 276 285 279 274 271 283 238 223 227 222 201 209 217 215 215 211 214 220 231 225 217 228 239 243 242 230 227 229 228 227
332 321 315 308 297 297 294 290 277 283 288 279 268 273 274 275 275 265 274 281 267 294 263 230 224 218 230 230 220 217 220 221 220 219 225 232 237 240 244 243 236 231 230 228 225
335 325 316 305 309 308 304 299 300 296 288 285 282 278 272 275 278 280 284 281 272 270 265 264 266 265 238 237 232 230 228 225 218 222 220 240 242 241 241 238 225 227 236 229 223
332 328 320 315 310 307 309 310 307 300 297 296 292 290 282 276 274 272 270 271 284 277 275 242 244 260 263 259 243 232 224 225 233 235 234 239 241 239 233 226 230 227 245 244 216
329 322 318 314 316 314 310 309 303 306 303 296 299 296 290 284 278 275 272 270 268 263 259 267 259 250 257 259 250 247 230 225 224 227 233 237 243 240 236 232 239 246 230 217 212